| time (UTC) | temp F | wind direction | speed MPH | gust MPH | rain 1hr in | rain 24hr in | rain mn in | humidity % | barometer mb |
| 20260505033047 | 67 | 220 | 8.0 | 16.0 | 0.00 | 0.02 | 0.02 | 66 | 1013.6 |
| 20260505030325 | 67 | 213 | 8.0 | 19.0 | 0.00 | 0.02 | 0.02 | 65 | 1013.7 |
| 20260505030017 | 67 | 164 | 5.0 | 13.0 | 0.00 | 0.02 | 0.02 | 64 | 1013.5 |
| 20260505023047 | 68 | 213 | 8.0 | 18.0 | 0.00 | 0.02 | 0.02 | 62 | 1013.9 |
| 20260505020325 | 67 | 189 | 4.0 | 11.0 | 0.00 | 0.02 | 0.02 | 63 | 1013.7 |
| 20260505020108 | 67 | 306 | 8.0 | 11.0 | 0.00 | 0.02 | 0.02 | 63 | 1013.6 |
| 20260505013024 | 67 | 233 | 3.0 | 10.0 | 0.00 | 0.02 | 0.02 | 64 | 1013.5 |
| 20260505010317 | 68 | 215 | 5.0 | 10.0 | 0.00 | 0.02 | 0.02 | 64 | 1013.1 |
| 20260505010040 | 68 | 223 | 6.0 | 10.0 | 0.00 | 0.02 | 0.02 | 64 | 1013.1 |
| 20260505003017 | 68 | 230 | 3.0 | 11.0 | 0.00 | 0.02 | 0.02 | 66 | 1012.8 |
| 20260505000402 | 66 | 228 | 2.0 | 7.0 | 0.00 | 0.02 | 0.02 | 75 | 1012.7 |
| 20260505000053 | 65 | 142 | 3.0 | 5.0 | 0.00 | 0.02 | 0.02 | 76 | 1012.7 |
| 20260504233035 | 65 | 156 | 2.0 | 3.0 | 0.02 | 0.02 | 0.02 | 79 | 1012.8 |
| 20260504230312 | 68 | 186 | 4.0 | 18.0 | 0.02 | 0.02 | 0.02 | 71 | 1013.0 |
| 20260504230052 | 68 | 203 | 4.0 | 18.0 | 0.02 | 0.02 | 0.02 | 69 | 1013.0 |
| 20260504223135 | 72 | 236 | 8.0 | 16.0 | 0.00 | 0.00 | 0.00 | 52 | 1013.1 |
| 20260504223052 | 72 | 236 | 8.0 | 16.0 | 0.00 | 0.00 | 0.00 | 52 | 1013.1 |
| 20260504220332 | 73 | 167 | 6.0 | 12.0 | 0.00 | 0.00 | 0.00 | 49 | 1013.2 |
| 20260504220131 | 72 | 179 | 6.0 | 14.0 | 0.00 | 0.00 | 0.00 | 49 | 1013.3 |
| 20260504213032 | 75 | 275 | 8.0 | 14.0 | 0.00 | 0.00 | 0.00 | 46 | 1013.4 |
| 20260504210326 | 74 | 223 | 10.0 | 18.0 | 0.00 | 0.00 | 0.00 | 44 | 1013.5 |
| 20260504210030 | 74 | 151 | 9.0 | 18.0 | 0.00 | 0.00 | 0.00 | 44 | 1013.5 |
| 20260504203027 | 74 | 174 | 7.0 | 21.0 | 0.00 | 0.00 | 0.00 | 43 | 1013.6 |
| 20260504200320 | 74 | 185 | 7.0 | 22.0 | 0.00 | 0.00 | 0.00 | 44 | 1013.9 |
| 20260504200123 | 74 | 223 | 8.0 | 22.0 | 0.00 | 0.00 | 0.00 | 42 | 1014.0 |
| 20260504193016 | 74 | 148 | 7.0 | 18.0 | 0.00 | 0.00 | 0.00 | 37 | 1014.5 |
| 20260504190340 | 74 | 278 | 7.0 | 17.0 | 0.00 | 0.00 | 0.00 | 36 | 1014.7 |
| 20260504190118 | 74 | 271 | 7.0 | 17.0 | 0.00 | 0.00 | 0.00 | 40 | 1014.8 |
| 20260504183100 | 74 | 205 | 8.0 | 14.0 | 0.00 | 0.00 | 0.00 | 38 | 1014.9 |
| 20260504180352 | 73 | 254 | 7.0 | 18.0 | 0.00 | 0.00 | 0.00 | 44 | 1015.4 |
| 20260504180034 | 73 | 213 | 8.0 | 18.0 | 0.00 | 0.00 | 0.00 | 42 | 1015.3 |
| 20260504173030 | 72 | 285 | 9.0 | 18.0 | 0.00 | 0.00 | 0.00 | 41 | 1015.5 |
| 20260504170405 | 71 | 236 | 8.0 | 18.0 | 0.00 | 0.00 | 0.00 | 44 | 1016.0 |
| 20260504160334 | 69 | 213 | 8.0 | 17.0 | 0.00 | 0.00 | 0.00 | 50 | 1016.4 |
| 20260504150340 | 66 | 257 | 5.0 | 12.0 | 0.00 | 0.00 | 0.00 | 52 | 1017.1 |
| 20260504140431 | 63 | 233 | 3.0 | 15.0 | 0.00 | 0.00 | 0.00 | 58 | 1017.3 |
| 20260504130338 | 59 | 276 | 5.0 | 15.0 | 0.00 | 0.00 | 0.00 | 60 | 1018.0 |
| 20260504110332 | 53 | 215 | 8.0 | 13.0 | 0.00 | 0.00 | 0.00 | 64 | 1017.6 |
| 20260504100328 | 53 | 214 | 6.0 | 13.0 | 0.00 | 0.00 | 0.00 | 62 | 1017.5 |
| 20260504080312 | 54 | 221 | 8.0 | 19.0 | 0.00 | 0.00 | 0.00 | 58 | 1018.3 |
| 20260504070351 | 54 | 225 | 9.0 | 17.0 | 0.00 | 0.00 | 0.00 | 59 | 1019.1 |
| 20260504050332 | 53 | 194 | 8.0 | 13.0 | 0.00 | 0.00 | 0.00 | 59 | 1020.6 |
| 20260504043030 | 53 | 194 | 4.0 | 10.0 | 0.00 | 0.00 | 0.00 | 60 | 1020.8 |
| 20260504040346 | 52 | 207 | 2.0 | 7.0 | 0.00 | 0.00 | 0.00 | 61 | 1021.0 |
| 20260504040010 | 51 | 207 | 3.0 | 6.0 | 0.00 | 0.00 | 0.00 | 61 | 1021.1 |